{"data":{"norad_id":60038,"intl_designator":"2024-112A","name":"STARLINK-11129 [DTC]","alt_names":[],"object_type":"PAYLOAD","status":"ACTIVE","operator":null,"country":"US","launch_date":"2024-06-08","launch_site_code":"AFWTR","launch_vehicle":null,"mission":null,"orbit_class":"UNKNOWN","rcs_meters":null,"size_class":null,"mass_kg":null,"dimensions":null,"purposes":["comms"],"wikipedia_slug":null,"has_3d_model":false,"image_url":null,"decayed_at":null,"tle_current":{"epoch":"2026-05-25T00:15:36.905184Z","epoch_age_seconds":78086,"freshness":"FRESH","line1":"1 60038U 24112A   26145.01084381 -.00000306  00000+0  23335-5 0  9990","line2":"2 60038  53.1601 250.3629 0001116  77.8885 282.2258 15.69708685112967","mean_motion":15.69708685,"eccentricity":0.0001116,"inclination_deg":53.1601,"raan_deg":250.3629,"arg_perigee_deg":77.8885,"mean_anomaly_deg":282.2258,"bstar":2.3335e-6,"rev_number":11296,"period_min":91.736767067706,"perigee_km":358.97856743455,"apogee_km":360.48245946355,"semimajor_km":6737.8675134491,"source":"CELESTRAK","updated_at":"2026-05-25T13:38:19.151833Z"}}}